Weather Roundup
Issued by NWS

Home | Current Version | Previous Version | Graphics & Text | Print | Product List | Glossary Off
Versions: 1 2 3 4 5 6 7 8 9 10 11 12 13 14 15 16 17 18 19 20 21 22 23 24 25 26 27 28 29 30 31 32 33 34 35 36 37 38 39 40 41 42 43 44 45 46 47 48 49 50

000
NZUS93 KARX 290110
HRRWXR

CURRENT HOURLY OBSERVATIONS ACROSS
MUCH OF THE UPPER MISSISSIPPI VALLEY
NATIONAL WEATHER SERVICE LA CROSSE WI
800 PM CDT WED SEP 28 2016


...SOUTHEAST MINNESOTA...


CITY           SKY/WX    TMP DP  RH WIND       PRES   REMARKS
ROCHESTER      CLOUDY    57  51  80 N13       30.27R
ROCHESTER/MAYO CLOUDY    58  51  76 NW5       30.27R
WINONA         CLOUDY    59  52  77 NW7       30.24R
AUSTIN         CLOUDY    57  50  77 N8        30.26R
ALBERT LEA     PTCLDY    57  50  77 N7        30.28R
DODGE CENTER   CLOUDY    55  48  76 N10       30.28R
PRESTON        CLOUDY    56  48  74 N7        30.25R
OWATONNA       CLOUDY    57  48  72 N16       30.29R
FARIBAULT      CLOUDY    55  50  82 N6        30.31R
$$

...ELSEWHERE IN MINNESOTA...


CITY           SKY/WX    TMP DP  RH WIND       PRES   REMARKS
MINNEAPOLIS    MOCLDY    59  48  67 N8        30.31R
INTNL FALLS    CLOUDY    55  48  77 N5        30.38R
DULUTH         CLOUDY    53  50  89 E3        30.35R
RED WING       CLOUDY    59  50  72 N12       30.28R
REDWOOD FALLS  CLOUDY    60  47  61 N6        30.33R
MANKATO        CLEAR     56  48  74 N9        30.31R
WORTHINGTON    MOCLDY    56  47  71 NE8       30.32R
FAIRMONT       CLOUDY    56  48  74 N7        30.31R
$$

...SOUTHWEST WISCONSIN...


CITY           SKY/WX    TMP DP  RH WIND       PRES   REMARKS
LA CROSSE      PTCLDY    58  51  78 N5        30.22R
PRAIRIE DU CHI CLEAR     59  49  71 N7        30.19S
BOSCOBEL       CLEAR     55  51  86 NE3       30.20R
LONE ROCK      CLEAR     55  49  80 CALM      30.20R
PLATTEVILLE    CLEAR     55  52  87 N7        30.19R
FORT MC COY    PTCLDY    54  53  96 CALM      30.23R
CAMP DOUGLAS   CLEAR     48  47  96 W2        30.22R
MAUSTON-NEW LI CLEAR     51  50  94 CALM      30.21R
VIROQUA        CLOUDY    53  50  89 N3        30.22R
WIS DELLS      CLEAR     54  48  81 CALM      30.20R
$$

...ELSEWHERE IN WISCONSIN...


CITY           SKY/WX    TMP DP  RH WIND       PRES   REMARKS
MILWAUKEE      MOCLDY    61  51  70 N18G29    30.11R
MADISON        CLEAR     54  50  86 N7        30.18R
GREEN BAY      CLEAR     57  55  93 N12       30.21R
EAU CLAIRE     PTCLDY    57  51  80 N9        30.27R
BLACK RVR FLS  FAIR      48  48 100 CALM      30.23R
MEDFORD        MOCLDY    51  51 100 N6        30.26R
WAUSAU         CLEAR     53  48  83 N3        30.24R
WIS RAPIDS     CLEAR     52  49  89 NE6       30.24R
MARSHFIELD     CLEAR     56  47  71 NE5       30.23R
RICE LAKE      CLOUDY    56  48  76 N9        30.33R
$$

...NORTHEAST IOWA...


CITY           SKY/WX    TMP DP  RH WIND       PRES   REMARKS
WATERLOO       CLOUDY    57  49  74 N6        30.21R
DUBUQUE        PTCLDY    55  50  83 NE8       30.19R
DECORAH        MOCLDY    55  52  88 N5        30.22R
MASON CITY     CLEAR     51  47  86 N8        30.27R
CHARLES CITY   CLEAR     55  48  76 N7        30.24R
OELWEIN        PTCLDY    57  50  77 N9        30.22R
$$

...ELSEWHERE IN IOWA...


CITY           SKY/WX    TMP DP  RH WIND       PRES   REMARKS
DES MOINES     CLOUDY    60  49  66 N7        30.23R
IOWA CITY      PTCLDY    60  50  69 N7        30.18R
FORT DODGE     MOCLDY    55  45  67 N5        30.27S
MARSHALLTOWN   CLOUDY    57  50  77 NW8       30.21R
CEDAR RAPIDS   CLEAR     54  51  90 NW6       30.17R
$$

...NORTHERN ILLINOIS...


CITY           SKY/WX    TMP DP  RH WIND       PRES   REMARKS
CHICAGO-OHARE  CLOUDY    55  52  89 N14G24    30.05F
CHICAGO-MIDWAY LGT RAIN  56  52  86 N13       30.05R FOG
MOLINE         PTCLDY    59  50  72 N8        30.14R
ROCKFORD       PTCLDY    58  48  69 N10       30.15R
PEORIA         CLEAR     56  50  80 N6        30.10R
$$

NOTE: "FAIR" INDICATES FEW OR NO CLOUDS BELOW 12,000 FEET WITH NO
SIGNIFICANT WEATHER AND/OR OBSTRUCTIONS TO VISIBILITY. WIND
SPEEDS ARE IN MILES-PER-HOUR.




USA.gov is the U.S. government's official web portal to all federal, state and local government web resources and services.